Time,TemperatureF,DewpointF,PressureIn,WindDirection,WindDirectionDegrees,WindSpeedMPH,WindSpeedGustMPH,Humidity,HourlyPrecipIn,Conditions,Clouds,dailyrainin,SolarRadiationWatts/m^2,SoftwareType,DateUTC
2013-01-28 00:04:00,40.0,27.0,-100.00,SE,133,5.0,12.0,59,0.00,,,0.00,0.000000,,2013-01-28 05:04:00,
2013-01-28 00:32:00,39.0,27.0,-100.00,SE,144,5.0,14.0,61,0.00,,,0.00,0.000000,,2013-01-28 05:32:00,
2013-01-28 00:42:00,39.0,27.0,-100.00,SE,144,5.0,14.0,61,0.00,,,0.00,0.000000,,2013-01-28 05:42:00,
2013-01-28 00:52:00,39.0,27.0,-100.00,SE,144,5.0,14.0,61,0.00,,,0.00,0.000000,,2013-01-28 05:52:00,
2013-01-28 01:02:00,39.0,27.0,-100.00,SE,144,5.0,14.0,61,0.00,,,0.00,0.000000,,2013-01-28 06:02:00,
2013-01-28 01:32:00,39.0,27.0,-100.00,ESE,103,4.0,12.0,62,0.00,,,0.00,0.000000,,2013-01-28 06:32:00,
2013-01-28 01:42:00,39.0,27.0,-100.00,ESE,103,4.0,12.0,62,0.00,,,0.00,0.000000,,2013-01-28 06:42:00,
2013-01-28 01:52:00,39.0,27.0,-100.00,ESE,103,4.0,12.0,62,0.00,,,0.00,0.000000,,2013-01-28 06:52:00,
2013-01-28 02:03:00,39.0,27.0,-100.00,ESE,103,4.0,12.0,62,0.00,,,0.00,0.000000,,2013-01-28 07:03:00,
2013-01-28 02:32:00,39.0,26.0,-100.00,North,6,2.0,8.0,60,0.00,,,0.00,0.000000,,2013-01-28 07:32:00,
2013-01-28 02:42:00,39.0,26.0,-100.00,North,6,2.0,8.0,60,0.00,,,0.00,0.000000,,2013-01-28 07:42:00,
2013-01-28 02:52:00,39.0,26.0,-100.00,North,6,2.0,8.0,60,0.00,,,0.00,0.000000,,2013-01-28 07:52:00,
2013-01-28 03:01:00,39.0,26.0,-100.00,North,6,2.0,8.0,60,0.00,,,0.00,0.000000,,2013-01-28 08:01:00,
2013-01-28 03:32:00,40.0,26.0,-100.00,SSE,157,4.0,9.0,58,0.00,,,0.00,0.000000,,2013-01-28 08:32:00,
2013-01-28 03:42:00,40.0,26.0,-100.00,SSE,157,4.0,9.0,58,0.00,,,0.00,0.000000,,2013-01-28 08:42:00,
2013-01-28 03:52:00,40.0,26.0,-100.00,SSE,157,4.0,9.0,58,0.00,,,0.00,0.000000,,2013-01-28 08:52:00,
2013-01-28 04:02:00,40.0,26.0,-100.00,SSE,157,4.0,9.0,58,0.00,,,0.00,0.000000,,2013-01-28 09:02:00,
2013-01-28 04:32:00,40.0,25.0,-100.00,South,169,6.0,9.0,55,0.00,,,0.00,0.000000,,2013-01-28 09:32:00,
2013-01-28 04:42:00,40.0,25.0,-100.00,South,169,6.0,9.0,55,0.00,,,0.00,0.000000,,2013-01-28 09:42:00,
2013-01-28 04:52:00,40.0,25.0,-100.00,South,169,6.0,9.0,55,0.00,,,0.00,0.000000,,2013-01-28 09:52:00,
2013-01-28 05:02:00,40.0,25.0,-100.00,South,169,6.0,9.0,55,0.00,,,0.00,0.000000,,2013-01-28 10:02:00,
2013-01-28 05:32:00,40.0,26.0,-100.00,ESE,112,1.0,8.0,58,0.00,,,0.00,0.000000,,2013-01-28 10:32:00,
2013-01-28 05:42:00,40.0,26.0,-100.00,ESE,112,1.0,8.0,58,0.00,,,0.00,0.000000,,2013-01-28 10:42:00,
2013-01-28 05:52:00,40.0,26.0,-100.00,ESE,112,1.0,8.0,58,0.00,,,0.00,0.000000,,2013-01-28 10:52:00,
2013-01-28 06:02:00,40.0,26.0,-100.00,ESE,112,1.0,8.0,58,0.00,,,0.00,0.000000,,2013-01-28 11:02:00,
2013-01-28 06:32:00,42.0,31.0,-100.00,SSE,168,6.0,9.0,64,0.00,,,0.00,0.000000,,2013-01-28 11:32:00,
2013-01-28 06:42:00,42.0,31.0,-100.00,SSE,168,6.0,9.0,64,0.00,,,0.00,0.000000,,2013-01-28 11:42:00,
2013-01-28 06:52:00,42.0,31.0,-100.00,SSE,168,6.0,9.0,64,0.00,,,0.00,0.000000,,2013-01-28 11:52:00,
2013-01-28 07:03:00,42.0,31.0,-100.00,SSE,168,6.0,9.0,64,0.00,,,0.00,0.000000,,2013-01-28 12:03:00,
2013-01-28 07:33:00,41.0,34.0,-100.00,NNE,21,1.0,9.0,75,0.00,,,0.00,0.000000,,2013-01-28 12:33:00,
2013-01-28 07:42:00,41.0,34.0,-100.00,NNE,21,1.0,9.0,75,0.00,,,0.00,0.000000,,2013-01-28 12:42:00,
2013-01-28 07:53:00,41.0,34.0,-100.00,NNE,21,1.0,9.0,75,0.00,,,0.00,0.000000,,2013-01-28 12:53:00,
2013-01-28 08:03:00,41.0,34.0,-100.00,NNE,21,1.0,9.0,75,0.00,,,0.00,0.000000,,2013-01-28 13:03:00,
2013-01-28 08:33:00,42.0,37.0,-100.00,NNE,13,2.0,4.0,83,0.00,,,0.00,1.000000,,2013-01-28 13:33:00,
2013-01-28 08:43:00,42.0,37.0,-100.00,NNE,13,2.0,4.0,83,0.00,,,0.00,1.000000,,2013-01-28 13:43:00,
2013-01-28 08:53:00,42.0,37.0,-100.00,NNE,13,2.0,4.0,83,0.00,,,0.00,1.000000,,2013-01-28 13:53:00,
2013-01-28 09:03:00,42.0,37.0,-100.00,NNE,13,2.0,4.0,83,0.00,,,0.00,1.000000,,2013-01-28 14:03:00,
2013-01-28 09:33:00,43.0,42.0,-100.00,WSW,250,1.0,5.0,95,0.00,,,0.00,23.000000,,2013-01-28 14:33:00,
2013-01-28 09:43:00,43.0,42.0,-100.00,WSW,250,1.0,5.0,95,0.00,,,0.00,23.000000,,2013-01-28 14:43:00,
2013-01-28 09:53:00,43.0,42.0,-100.00,WSW,250,1.0,5.0,95,0.00,,,0.00,23.000000,,2013-01-28 14:53:00,
2013-01-28 10:03:00,43.0,42.0,-100.00,WSW,250,1.0,5.0,95,0.00,,,0.00,23.000000,,2013-01-28 15:03:00,
2013-01-28 10:33:00,45.0,44.0,-100.00,SE,143,6.0,9.0,96,0.00,,,0.00,75.000000,,2013-01-28 15:33:00,
2013-01-28 10:43:00,45.0,44.0,-100.00,SE,143,6.0,9.0,96,0.00,,,0.00,75.000000,,2013-01-28 15:43:00,
2013-01-28 10:53:00,45.0,44.0,-100.00,SE,143,6.0,9.0,96,0.00,,,0.00,75.000000,,2013-01-28 15:53:00,
2013-01-28 11:04:00,45.0,44.0,-100.00,SE,143,6.0,9.0,96,0.00,,,0.00,75.000000,,2013-01-28 16:04:00,
2013-01-28 11:33:00,47.0,45.0,-100.00,SE,146,7.0,12.0,91,0.00,,,0.00,206.000000,,2013-01-28 16:33:00,
2013-01-28 11:43:00,47.0,45.0,-100.00,SE,146,7.0,12.0,91,0.00,,,0.00,206.000000,,2013-01-28 16:43:00,
2013-01-28 11:53:00,47.0,45.0,-100.00,SE,146,7.0,12.0,91,0.00,,,0.00,206.000000,,2013-01-28 16:53:00,
2013-01-28 12:02:00,47.0,45.0,-100.00,SE,146,7.0,12.0,91,0.00,,,0.00,206.000000,,2013-01-28 17:02:00,
2013-01-28 12:33:00,49.0,46.0,-100.00,SE,144,6.0,11.0,91,0.00,,,0.00,231.000000,,2013-01-28 17:33:00,
2013-01-28 12:42:00,49.0,46.0,-100.00,SE,144,6.0,11.0,91,0.00,,,0.00,231.000000,,2013-01-28 17:42:00,
2013-01-28 12:53:00,49.0,46.0,-100.00,SE,144,6.0,11.0,91,0.00,,,0.00,231.000000,,2013-01-28 17:53:00,
2013-01-28 13:03:00,49.0,46.0,-100.00,SE,144,6.0,11.0,91,0.00,,,0.00,231.000000,,2013-01-28 18:03:00,
2013-01-28 13:33:00,53.0,49.0,-100.00,SSE,149,6.0,10.0,85,0.00,,,0.00,247.000000,,2013-01-28 18:33:00,
2013-01-28 13:43:00,53.0,49.0,-100.00,SSE,149,6.0,10.0,85,0.00,,,0.00,247.000000,,2013-01-28 18:43:00,
2013-01-28 13:53:00,53.0,49.0,-100.00,SSE,149,6.0,10.0,85,0.00,,,0.00,247.000000,,2013-01-28 18:53:00,
2013-01-28 14:02:00,53.0,49.0,-100.00,SSE,149,6.0,10.0,85,0.00,,,0.00,247.000000,,2013-01-28 19:02:00,
2013-01-28 14:33:00,54.0,49.0,-100.00,SSE,155,10.0,16.0,82,0.00,,,0.00,322.000000,,2013-01-28 19:33:00,
2013-01-28 14:43:00,54.0,49.0,-100.00,SSE,155,10.0,16.0,82,0.00,,,0.00,322.000000,,2013-01-28 19:43:00,
2013-01-28 14:53:00,54.0,49.0,-100.00,SSE,155,10.0,16.0,82,0.00,,,0.00,322.000000,,2013-01-28 19:53:00,
2013-01-28 15:03:00,54.0,49.0,-100.00,SSE,155,10.0,16.0,82,0.00,,,0.00,322.000000,,2013-01-28 20:03:00,
2013-01-28 15:33:00,53.0,49.0,-100.00,SE,131,4.0,15.0,85,0.00,,,0.00,193.000000,,2013-01-28 20:33:00,
2013-01-28 15:43:00,53.0,49.0,-100.00,SE,131,4.0,15.0,85,0.00,,,0.00,193.000000,,2013-01-28 20:43:00,
2013-01-28 15:53:00,53.0,49.0,-100.00,SE,131,4.0,15.0,85,0.00,,,0.00,193.000000,,2013-01-28 20:53:00,
2013-01-28 16:03:00,53.0,49.0,-100.00,SE,131,4.0,15.0,85,0.00,,,0.00,193.000000,,2013-01-28 21:03:00,
2013-01-28 16:34:00,54.0,49.0,-100.00,SE,132,4.0,10.0,83,0.00,,,0.00,114.000000,,2013-01-28 21:34:00,
2013-01-28 16:43:00,54.0,49.0,-100.00,SE,132,4.0,10.0,83,0.00,,,0.00,114.000000,,2013-01-28 21:43:00,
2013-01-28 16:53:00,54.0,49.0,-100.00,SE,132,4.0,10.0,83,0.00,,,0.00,114.000000,,2013-01-28 21:53:00,
2013-01-28 17:02:00,54.0,49.0,-100.00,SE,132,4.0,10.0,83,0.00,,,0.00,114.000000,,2013-01-28 22:02:00,
2013-01-28 17:33:00,53.0,48.0,-100.00,WSW,240,4.0,10.0,84,0.00,,,-99.99,56.000000,,2013-01-28 22:33:00,
2013-01-28 17:42:00,53.0,48.0,-100.00,WSW,240,4.0,10.0,84,0.00,,,-99.99,56.000000,,2013-01-28 22:42:00,
2013-01-28 17:52:00,53.0,48.0,-100.00,WSW,240,4.0,10.0,84,0.00,,,-99.99,56.000000,,2013-01-28 22:52:00,
2013-01-28 18:03:00,53.0,48.0,-100.00,WSW,240,4.0,10.0,84,0.00,,,-99.99,56.000000,,2013-01-28 23:03:00,
2013-01-28 18:33:00,50.0,46.0,-100.00,SSW,207,2.0,10.0,87,0.00,,,0.00,23.000000,,2013-01-28 23:33:00,
2013-01-28 18:42:00,50.0,46.0,-100.00,SSW,207,2.0,10.0,87,0.00,,,0.00,23.000000,,2013-01-28 23:42:00,
2013-01-28 18:53:00,50.0,46.0,-100.00,SSW,207,2.0,10.0,87,0.00,,,0.00,23.000000,,2013-01-28 23:53:00,
2013-01-28 19:02:00,50.0,46.0,-100.00,SSW,207,2.0,10.0,87,0.00,,,0.00,23.000000,,2013-01-29 00:02:00,
2013-01-28 19:33:00,48.0,45.0,-100.00,SW,221,0.0,4.0,90,0.00,,,0.00,0.000000,,2013-01-29 00:33:00,
2013-01-28 19:42:00,48.0,45.0,-100.00,SW,221,0.0,4.0,90,0.00,,,0.00,0.000000,,2013-01-29 00:42:00,
2013-01-28 19:52:00,48.0,45.0,-100.00,SW,221,0.0,4.0,90,0.00,,,0.00,0.000000,,2013-01-29 00:52:00,
2013-01-28 20:02:00,48.0,45.0,-100.00,SW,221,0.0,4.0,90,0.00,,,0.00,0.000000,,2013-01-29 01:02:00,
2013-01-28 20:32:00,45.0,44.0,-100.00,ENE,62,1.0,4.0,96,0.00,,,0.00,0.000000,,2013-01-29 01:32:00,
2013-01-28 20:42:00,45.0,44.0,-100.00,ENE,62,1.0,4.0,96,0.00,,,0.00,0.000000,,2013-01-29 01:42:00,
2013-01-28 20:53:00,45.0,44.0,-100.00,ENE,62,1.0,4.0,96,0.00,,,0.00,0.000000,,2013-01-29 01:53:00,
2013-01-28 21:02:00,45.0,44.0,-100.00,ENE,62,1.0,4.0,96,0.00,,,0.00,0.000000,,2013-01-29 02:02:00,
2013-01-28 21:33:00,45.0,44.0,-100.00,NE,46,1.0,4.0,98,0.00,,,0.00,0.000000,,2013-01-29 02:33:00,
2013-01-28 21:42:00,45.0,44.0,-100.00,NE,46,1.0,4.0,98,0.00,,,0.00,0.000000,,2013-01-29 02:42:00,
2013-01-28 21:53:00,45.0,44.0,-100.00,NE,46,1.0,4.0,98,0.00,,,0.00,0.000000,,2013-01-29 02:53:00,
2013-01-28 22:03:00,45.0,44.0,-100.00,NE,46,1.0,4.0,98,0.00,,,0.00,0.000000,,2013-01-29 03:03:00,
2013-01-28 22:32:00,43.0,43.0,-100.00,North,11,1.0,4.0,99,0.00,,,0.00,0.000000,,2013-01-29 03:32:00,
2013-01-28 22:42:00,43.0,43.0,-100.00,North,11,1.0,4.0,99,0.00,,,0.00,0.000000,,2013-01-29 03:42:00,
2013-01-28 22:53:00,43.0,43.0,-100.00,North,11,1.0,4.0,99,0.00,,,0.00,0.000000,,2013-01-29 03:53:00,
2013-01-28 23:02:00,43.0,43.0,-100.00,North,11,1.0,4.0,99,0.00,,,0.00,0.000000,,2013-01-29 04:02:00,
2013-01-28 23:32:00,41.0,41.0,-100.00,NNE,15,0.0,3.0,99,0.00,,,0.00,0.000000,,2013-01-29 04:32:00,
2013-01-28 23:42:00,41.0,41.0,-100.00,NNE,15,0.0,3.0,99,0.00,,,0.00,0.000000,,2013-01-29 04:42:00,
2013-01-28 23:52:00,41.0,41.0,-100.00,NNE,15,0.0,3.0,99,0.00,,,0.00,0.000000,,2013-01-29 04:52:00,